[[[{"header":{"parameterUnit":"kt","parameterCategory":2,"dx":1,"dy":1,"la1":30.253999710083008,"la2":30.299108505249023,"lo1":-89.0895004272461,"lo2":-89.04439544677734,"nx":28,"ny":28,"refTime":"2022-10-10T21:00:00:Z","depth":0,"parameterNumber":1,"parameterNumberName":"U-component_of_WINDS"},"data":[-7.0837,-7.0971,-7.0953,-7.11,-7.1107,-7.1204,-7.1233,-7.1269,-7.1292,-7.1407,-7.147,-7.1466,-7.1482,-7.1554,-7.1622,-7.1618,-7.1648,-7.1712,-7.1697,-7.1429,-7.139,-7.1354,-7.1319,-7.1719,-7.1719,-7.1976,-7.1978,-7.198,-7.0649,-7.0658,-7.0729,-7.0785,-7.0846,-7.0775,-7.0814,-7.087,-7.0959,-7.0988,-7.1048,-7.1147,-7.1224,-7.1217,-7.1287,-7.1352,-7.1322,-7.1373,-7.1367,-7.1371,-7.1084,-7.1048,-7.1396,-7.1396,-7.1396,-7.1396,-7.1396,-7.1396,-7.0303,-7.0384,-7.0405,-7.0481,-7.0504,-7.0542,-7.0616,-7.0606,-7.0675,-7.0744,-7.0706,-7.0806,-7.0832,-7.0905,-7.0924,-7.1003,-7.0942,-7.0991,-7.1004,-7.1017,-7.1035,-7.067,-7.1014,-7.1012,-7.1011,-7.1011,-7.101,0,-7.0042,-7.002,-7.0084,-7.0145,-7.0199,-7.0244,-7.0281,-7.0326,-7.027,-7.033,-7.0414,-7.0459,-7.055,-7.0628,-7.0687,-7.0696,-7.0626,-7.0616,-7.065,-7.0669,-7.0681,-7.0678,-7.0212,-7.0605,-7.0602,-7.0599,-7.0597,-7.0596,-6.9691,-6.9787,-6.9797,-6.9846,-6.9859,-6.9939,-6.9982,-6.9924,-6.9972,-7.001,-7.0085,-7.0161,-7.0218,-7.0358,-7.0344,-7.0411,-7.0377,-7.053,-7.0386,-7.0403,-7.038,-7.0375,-7.0385,-7.0558,-7.0563,-7.0567,-7.057,0,-6.9496,-6.9459,-6.96,-6.9599,-6.9602,-6.9706,-6.9705,-6.9784,-6.9763,-6.9869,-6.989,-6.9858,-6.9942,-6.9902,-6.9989,-6.9966,-7.0142,-7.0107,-7.0134,-7.0124,-7.0258,-7.0246,-7.0695,-7.0751,-7.0337,-7.0341,-7.0344,0,-6.9181,-6.9309,-6.9246,-6.933,-6.9471,-6.9406,-6.9548,-6.9543,-6.956,-6.9642,-6.9554,-6.9634,-6.9568,-6.9643,-6.9609,-6.9745,-6.976,-6.9751,-6.974,-6.9758,-6.976,-6.9782,-6.9763,-6.971,-6.9708,-6.9706,-6.9704,0,-6.8878,-6.8992,-6.9128,-6.9148,-6.9157,-6.9223,-6.923,-6.9246,-6.9288,-6.9336,-6.9363,-6.9424,-6.9458,-6.9507,-6.9461,-6.9366,-6.9626,-6.9485,-6.9616,-6.9618,-6.9674,-6.9671,-7.008,-6.9701,-6.97,-6.97,-6.9699,0,-6.8616,-6.8663,-6.8865,-6.887,-6.8903,-6.8992,-6.9046,-6.9112,-6.9136,-6.9118,-6.9155,-6.909,-6.9203,-6.9067,-6.9223,-6.9112,-6.9151,-6.9151,-6.9159,-6.9166,-6.9014,-6.925,-6.9643,-6.9683,-6.9175,-6.9171,-6.9167,0,-6.8281,-6.8472,-6.8416,-6.8609,-6.869,-6.8583,-6.8682,-6.8704,-6.8688,-6.8756,-6.8739,-6.8817,-6.8706,-6.8724,-6.8808,-6.8793,-6.8938,-6.8772,-6.8874,-6.8879,-6.8872,-6.9233,-6.9301,-6.9562,-6.9111,-6.9116,-6.9121,0,-6.8014,-6.802,-6.8058,-6.8077,-6.8093,-6.816,-6.8273,-6.8334,-6.8383,-6.8416,-6.851,-6.8618,-6.8539,-6.857,-6.8521,-6.861,-6.8838,-6.8512,-6.8512,-6.8573,-6.9077,-6.9142,-6.9186,-6.8787,-6.8793,-6.8799,-6.9076,0,-6.7629,-6.7718,-6.7818,-6.786,-6.7905,-6.8021,-6.7972,-6.8026,-6.7974,-6.7952,-6.8088,-6.8093,-6.8156,-6.8193,-6.8142,-6.8357,-6.8314,-6.8228,-6.809,-6.8328,-6.8418,-6.8455,-6.796,-6.7956,-6.7952,-6.7949,0,0,-6.7318,-6.7441,-6.7372,-6.7477,-6.751,-6.7393,-6.7522,-6.7541,-6.7581,-6.7608,-6.7531,-6.7683,-6.769,-6.786,-6.793,-6.7955,-6.7989,-6.7906,-6.8215,-6.8245,-6.8272,-6.837,-6.8408,-6.7943,-6.7942,-6.794,-6.7939,0,-6.7165,-6.7171,-6.7298,-6.7314,-6.7334,-6.7303,-6.7334,-6.7333,-6.7325,-6.7455,-6.7357,-6.7432,-6.7554,-6.7574,-6.7601,-6.7886,-6.7807,-6.7909,-6.8079,-6.818,-6.8215,-6.8245,-6.8348,-6.8386,-6.793,-6.7931,-6.7931,0,-6.6894,-6.6892,-6.6946,-6.7013,-6.7024,-6.711,-6.6953,-6.705,-6.7113,-6.6978,-6.7109,-6.7105,-6.7127,-6.7293,-6.7365,-6.7296,-6.7644,-6.7524,-6.7546,-6.7552,-6.7648,-6.769,-6.7727,-6.7237,-6.7234,-6.7232,0,0,-6.6769,-6.6848,-6.6825,-6.6975,-6.699,-6.6945,-6.6984,-6.6935,-6.6955,-6.6964,-6.6955,-6.6979,-6.7049,-6.7097,-6.7159,-6.7348,-6.7348,-6.7441,-6.7473,-6.75,-6.7522,-6.7624,-6.7666,-6.7224,-6.7224,-6.7224,0,0,-6.6708,-6.6686,-6.6629,-6.6796,-6.6819,-6.6806,-6.6901,-6.683,-6.688,-6.6861,-6.6782,-6.6785,-6.6938,-6.6937,-6.6832,-6.7109,-6.6974,-6.6998,-6.7104,-6.7144,-6.7177,-6.7173,-6.667,0,0,0,0,0,-6.6524,-6.6689,-6.6637,-6.6657,-6.6738,-6.6835,-6.6845,-6.6783,-6.6689,-6.6766,-6.6747,-6.6659,-6.6864,-6.6769,-6.6791,-6.6909,-6.7116,-6.7135,-6.7153,-6.7334,-6.7377,-6.7413,0,0,0,0,0,0,-6.6531,-6.6556,-6.6632,-6.6627,-6.6644,-6.6828,-6.6656,-6.6643,-6.6679,-6.666,-6.6665,-6.6659,-6.6608,-6.6753,-6.6774,-6.6888,-6.6663,-6.7124,-6.714,-6.7155,-6.7349,-6.7384,-6.7414,0,0,0,0,0,-6.6537,-6.6556,-6.6703,-6.6624,-6.6639,-6.6596,-6.6649,-6.6637,-6.6663,-6.6633,-6.6624,-6.6613,-6.6613,-6.6626,-6.6765,-6.688,-6.6648,-6.6656,-6.7134,-6.7147,-6.7158,-6.7366,0,0,0,0,0,0,-6.6541,-6.6547,-6.6705,-6.6707,-6.6555,-6.6584,-6.6587,-6.6632,-6.6633,-6.6626,-6.6576,-6.6562,-6.6619,-6.6628,-6.6639,-6.6881,-6.6636,-6.6644,-6.6649,-6.7144,-6.7154,-6.7163,0,0,0,0,0,0,-6.6536,-6.655,-6.6706,-6.6623,-6.6615,-6.6574,-6.6576,-6.6684,-6.6635,-6.6575,-6.6563,-6.657,-6.6603,-6.663,-6.6638,-6.6809,-6.6627,-6.6635,-6.664,-6.6643,-6.7152,-6.716,0,0,0,0,0,0,-6.6541,-6.6553,-6.6622,-6.6616,-6.6609,-6.6631,-6.6668,-6.6756,-6.6563,-6.6577,-6.6544,-6.6535,-6.6608,-6.6614,-6.6638,-6.6807,-6.6809,-6.6627,-6.6632,-6.6636,-6.6639,0,0,0,0,0,0,0,-6.6545,-6.6478,-6.669,-6.6611,-6.6604,-6.673,-6.673,-6.6731,-6.6561,-6.6553,-6.6546,-6.6539,-6.6582,-6.6591,-6.6599,-6.6805,0,0,-6.6626,-6.663,0,0,0,0,0,0,0,0,-6.6471,-6.6476,-6.6691,-6.6691,-6.6692,-6.673,-6.673,-6.6731,-6.656,-6.6553,-6.6547,-6.6541,-6.6585,-6.6592,-6.6599,0,0,0,0,0,0,0,0,0,0,0,0,0,0,0,-6.6691,-6.6691,0,-6.673,-6.673,-6.6731,-6.6559,-6.6554,-6.6549,-6.6544,-6.6587,-6.6592,-6.6598,0,0,0,0,0,0,0,0,0,0,0,0,0,0,0,0,0,0,0,0,0,0,0,0,0,0,0,0,0,0,0,0,0,0,0,0,0,0,0,0,0,0,0,0,0,0,0,0,0,0,0,0,0,0,0,0,0,0,0,0,0,0,0,0,0,0,0,0,0]}],[{"header":{"parameterUnit":"kt","parameterCategory":2,"dx":1,"dy":1,"la1":30.253999710083008,"la2":30.299108505249023,"lo1":-89.0895004272461,"lo2":-89.04439544677734,"nx":28,"ny":28,"refTime":"2022-10-10T21:00:00:Z","depth":0,"parameterNumber":2,"parameterNumberName":"V-component_of_WINDS"},"data":[1.8807,1.8689,1.8703,1.8574,1.8564,1.8477,1.8449,1.8415,1.839,1.8285,1.8226,1.8224,1.8201,1.8131,1.8064,1.8064,1.8033,1.7984,1.7991,1.8207,1.8237,1.8266,1.8296,1.7978,1.7978,1.7765,1.7763,1.7761,1.8968,1.8959,1.8895,1.8841,1.8786,1.8844,1.8804,1.8752,1.8671,1.8639,1.8582,1.8488,1.8414,1.8406,1.8336,1.8277,1.8297,1.8257,1.8259,1.8254,1.8486,1.8518,1.8243,1.8243,1.8243,1.8243,1.8243,1.8243,1.9266,1.9194,1.9171,1.9101,1.9077,1.904,1.8973,1.8974,1.8908,1.884,1.8866,1.8772,1.8739,1.8657,1.8632,1.8557,1.8602,1.8559,1.8548,1.8536,1.8521,1.8826,1.8545,1.8546,1.8547,1.8547,1.8548,0,1.9486,1.9503,1.9442,1.9385,1.9334,1.929,1.925,1.9209,1.9243,1.9186,1.9105,1.9059,1.8968,1.8889,1.8824,1.8805,1.8851,1.8858,1.8828,1.8812,1.8809,1.8807,1.9183,1.8864,1.8867,1.8869,1.887,1.8871,1.9785,1.97,1.968,1.9635,1.9617,1.9543,1.95,1.9537,1.949,1.9444,1.9377,1.9301,1.924,1.9103,1.9098,1.9027,1.9048,1.8925,1.9036,1.9028,1.9042,1.9045,1.9036,1.89,1.8897,1.8894,1.8891,0,1.9951,1.9973,1.9844,1.9832,1.9826,1.9734,1.9721,1.9649,1.9656,1.9557,1.9536,1.9544,1.9461,1.9476,1.9382,1.9392,1.9234,1.9258,1.9247,1.9251,1.9141,1.915,1.8784,1.8737,1.907,1.9067,1.9064,0,2.0211,2.0097,2.0136,2.006,1.9934,1.9975,1.9848,1.9841,1.9815,1.9737,1.9796,1.972,1.9752,1.9678,1.9692,1.9566,1.9549,1.9547,1.9551,1.9539,1.9539,1.9508,1.9522,1.9568,1.957,1.9571,1.9573,0,2.0466,2.0353,2.0231,2.0208,2.018,2.0121,2.0105,2.0075,2.0031,1.9977,1.9949,1.9881,1.9842,1.9788,1.9806,1.9882,1.9654,1.976,1.9651,1.9651,1.9595,1.9598,1.9276,1.9575,1.9575,1.9576,1.9577,0,2.0677,2.0627,2.0447,2.0426,2.0393,2.0311,2.025,2.0184,2.0146,2.0152,2.0108,2.0147,2.004,2.0145,1.9997,2.0089,2.0047,2.0037,2.003,2.0016,2.0131,1.9943,1.9639,1.9606,2.0011,2.0014,2.0018,0,2.0962,2.0786,2.082,2.0646,2.0566,2.064,2.0549,2.0514,2.0514,2.0443,2.0441,2.0359,2.044,2.0416,2.0342,2.0333,2.0213,2.0351,2.024,2.0236,2.0247,1.9968,1.9917,1.9705,2.0064,2.0059,2.0056,0,2.1184,2.1154,2.112,2.1095,2.1059,2.0991,2.0887,2.0816,2.0768,2.0722,2.0633,2.0518,2.0574,2.0532,2.0555,2.0476,2.0296,2.0545,2.0545,2.0497,2.0089,2.0042,2.0006,2.0328,2.0322,2.0318,2.0093,0,2.1495,2.141,2.1321,2.1263,2.1214,2.1106,2.1125,2.1071,2.1101,2.1101,2.0971,2.0942,2.0863,2.0828,2.0853,2.0669,2.07,2.076,2.0858,2.0676,2.0602,2.0572,2.0968,2.0971,2.0974,2.0976,0,0,2.176,2.1638,2.1676,2.1577,2.1538,2.1614,2.1496,2.1465,2.1399,2.1369,2.1426,2.1258,2.1229,2.1067,2.1013,2.0981,2.0948,2.101,2.0764,2.074,2.0718,2.0639,2.0607,2.098,2.0981,2.0982,2.0983,0,2.1877,2.1857,2.1742,2.1714,2.1673,2.1681,2.1653,2.1623,2.1618,2.1491,2.1549,2.1472,2.1334,2.1297,2.126,2.1032,2.1076,2.1007,2.0879,2.0789,2.0762,2.0738,2.0654,2.0624,2.0989,2.0988,2.0988,0,2.2097,2.2079,2.2026,2.1942,2.1915,2.1829,2.1941,2.1845,2.1781,2.186,2.1732,2.1716,2.1667,2.1513,2.1443,2.1491,2.1192,2.1289,2.1274,2.1264,2.1177,2.1144,2.1116,2.1495,2.1497,2.1499,0,0,2.2194,2.2116,2.2104,2.1968,2.1948,2.1956,2.1912,2.1936,2.1894,2.1876,2.1857,2.1811,2.1732,2.1678,2.1603,2.1432,2.1422,2.1351,2.1327,2.1308,2.1288,2.1195,2.1163,2.1505,2.1505,2.1506,0,0,2.2239,2.2223,2.2261,2.2106,2.2067,2.2043,2.1957,2.2002,2.1937,2.1951,2.1981,2.197,2.1826,2.1806,2.1893,2.1637,2.1735,2.1715,2.1655,2.1624,2.1601,2.1606,2.1996,0,0,0,0,0,2.2368,2.2226,2.2261,2.2238,2.2129,2.2025,2.2011,2.2036,2.2106,2.2038,2.2029,2.2081,2.186,2.1937,2.1911,2.1812,2.1589,2.1574,2.156,2.1442,2.1411,2.1384,0,0,0,0,0,0,2.2359,2.2331,2.2265,2.2235,2.2211,2.2031,2.2155,2.2158,2.2114,2.2126,2.2081,2.2079,2.2095,2.1952,2.1928,2.1834,2.2004,2.1583,2.1571,2.1559,2.1431,2.1406,2.1384,0,0,0,0,0,2.2352,2.233,2.2149,2.2237,2.2216,2.2216,2.216,2.2164,2.213,2.2114,2.2115,2.2153,2.2092,2.2073,2.1937,2.1844,2.2021,2.2012,2.1575,2.1565,2.1556,2.1419,0,0,0,0,0,0,2.2347,2.233,2.2145,2.2139,2.2293,2.2226,2.2217,2.2168,2.2121,2.212,2.2188,2.2198,2.2088,2.2074,2.2059,2.1846,2.2034,2.2025,2.2019,2.1567,2.156,2.1553,0,0,0,0,0,0,2.2343,2.2325,2.2142,2.2211,2.2214,2.2236,2.2227,2.2114,2.2119,2.2197,2.2205,2.2193,2.2108,2.2074,2.2063,2.1885,2.2045,2.2036,2.203,2.2026,2.1561,2.1555,0,0,0,0,0,0,2.2336,2.232,2.2213,2.2214,2.2217,2.2155,2.2136,2.202,2.2184,2.2198,2.2199,2.2206,2.2106,2.2095,2.2065,2.1891,2.1886,2.2044,2.2038,2.2034,2.2031,0,0,0,0,0,0,0,2.233,2.2427,2.2179,2.2217,2.222,2.2087,2.2086,2.2084,2.2186,2.2191,2.2197,2.2203,2.2095,2.2085,2.2075,2.1896,0,0,2.2045,2.2041,0,0,0,0,0,0,0,0,2.2434,2.2428,2.2179,2.2178,2.2177,2.2087,2.2086,2.2084,2.2187,2.2191,2.2196,2.2201,2.2092,2.2084,2.2076,0,0,0,0,0,0,0,0,0,0,0,0,0,0,0,2.2179,2.2178,0,2.2087,2.2086,2.2085,2.2187,2.2191,2.2195,2.2199,2.209,2.2084,2.2077,0,0,0,0,0,0,0,0,0,0,0,0,0,0,0,0,0,0,0,0,0,0,0,0,0,0,0,0,0,0,0,0,0,0,0,0,0,0,0,0,0,0,0,0,0,0,0,0,0,0,0,0,0,0,0,0,0,0,0,0,0,0,0,0,0,0,0,0,0]}]]]